CST,Max TemperatureF,Mean TemperatureF,Min TemperatureF,Max Dew PointF,MeanDew PointF,Min DewpointF,Max Humidity, Mean Humidity, Min Humidity, Max Sea Level PressureIn, Mean Sea Level PressureIn, Min Sea Level PressureIn, Max VisibilityMiles, Mean VisibilityMiles, Min VisibilityMiles, Max Wind SpeedMPH, Mean Wind SpeedMPH, Max Gust SpeedMPH,PrecipitationIn, CloudCover, Events, WindDirDegrees
2012-12-1,55,42,28,46,37,27,93,83,58,29.95,29.81,29.73,10,4,0,15,5,18,0.00,3,Fog,196
2012-12-2,62,42,23,39,33,19,93,73,39,30.00,29.88,29.73,10,7,0,16,3,18,0.00,1,Fog,172
2012-12-3,60,45,30,46,32,19,93,62,23,30.06,29.78,29.58,10,7,0,25,8,32,0.00,1,Fog,242
2012-12-4,53,40,26,23,19,16,75,50,22,30.32,30.20,30.06,10,10,10,12,3,,0.00,0,,319
2012-12-5,55,40,26,23,19,16,69,43,23,30.33,30.05,29.79,10,10,10,25,11,33,0.00,0,,168
2012-12-6,48,44,39,36,29,25,71,56,46,30.01,29.95,29.81,10,10,10,17,8,22,0.00,5,Rain,341
2012-12-7,37,34,30,30,26,21,87,72,56,30.01,29.97,29.92,10,7,0,10,4,,0.02,7,Snow,59
2012-12-8,35,30,24,30,27,21,93,85,75,30.01,29.93,29.82,10,6,0,15,3,25,0.00,7,Fog-Snow,144
2012-12-9,37,24,10,32,18,1,87,77,67,30.10,29.92,29.79,10,8,2,28,14,38,0.00,8,Snow,283
2012-12-10,24,12,1,12,3,-6,78,63,50,30.09,29.96,29.84,10,10,10,20,9,28,0.00,2,,241
2012-12-11,41,31,21,25,20,14,80,66,39,29.93,29.90,29.84,10,10,10,13,5,16,0.00,3,,236
2012-12-12,53,40,28,18,14,9,64,39,16,29.91,29.85,29.80,10,10,10,25,15,31,0.00,0,,193
2012-12-13,42,32,21,19,18,16,86,53,36,30.08,29.98,29.87,10,10,7,16,9,20,0.00,0,,243
2012-12-14,51,35,19,36,24,16,93,63,35,30.07,29.86,29.58,10,9,5,14,4,21,0.00,1,Rain,153
2012-12-15,46,39,32,41,36,28,93,85,71,29.69,29.56,29.47,10,6,2,16,7,22,0.54,8,Rain-Snow,323
2012-12-16,30,28,26,27,23,19,86,80,74,29.81,29.77,29.70,10,10,7,13,7,,0.00,4,,351
2012-12-17,32,29,26,28,25,21,93,84,80,29.78,29.69,29.59,10,6,2,9,3,,0.00,8,Snow,136
2012-12-18,35,28,21,30,27,19,93,84,75,29.84,29.65,29.47,7,4,2,10,6,16,0.00,6,,13
2012-12-19,39,32,24,30,25,21,93,79,56,29.94,29.90,29.83,10,7,1,21,4,30,0.00,5,Snow,24
2012-12-20,24,18,12,19,13,7,86,77,68,30.19,30.03,29.91,10,8,3,25,15,33,0.01,5,Snow,336
2012-12-21,26,14,3,16,8,-2,85,73,59,30.30,30.22,30.13,10,10,7,8,2,,0.00,0,,176
2012-12-22,33,24,14,23,16,7,86,74,60,30.12,30.00,29.93,10,10,7,12,7,,0.00,0,,327
2012-12-23,21,14,8,16,10,3,86,77,68,30.08,30.03,29.98,10,9,4,10,4,,0.00,4,Snow,18
2012-12-24,19,11,3,12,6,-6,79,69,62,30.31,30.13,30.00,10,10,7,15,11,21,0.00,4,Snow,347
2012-12-25,12,6,1,3,-2,-6,79,68,62,30.50,30.41,30.32,10,10,10,13,7,17,0.00,0,,3
2012-12-26,19,10,0,10,2,-8,78,68,53,30.37,30.25,30.16,10,10,10,8,2,,0.00,1,,87
2012-12-27,23,19,15,18,14,9,86,80,73,30.17,30.07,30.01,10,6,1,10,7,,0.02,8,Snow,106
2012-12-28,23,16,8,18,13,5,93,80,73,30.09,30.02,29.98,10,6,2,10,4,,0.00,8,Snow,19
2012-12-29,17,8,0,14,5,-8,86,81,72,30.18,30.14,30.08,10,6,0,12,4,,0.00,5,Snow,273
2012-12-30,35,18,0,23,12,-8,86,70,59,30.18,30.01,29.87,10,10,7,18,5,22,0.00,0,,245
2012-12-31,24,11,-2,16,9,-8,86,74,63,30.27,30.19,30.09,10,10,4,12,6,18,0.00,4,Snow,7